This is the latest recevied weather packets stored in our database for station/object Waldburg. If no packets are shown the sender has not sent any weather packets the latest 10 day(s).
| Time | Temp. | Humidity | Pressure | Rain* | Wind** | Luminosity | Snow |
|---|---|---|---|---|---|---|---|
| 1788674530 | 13.33° C | 89% | 1024.1 hPa | 0 mm | - | - | - |
| 1788672730 | 12.78° C | 90% | 1024.1 hPa | 0 mm | - | - | - |
| 1788670931 | 13.33° C | 88% | 1023.9 hPa | 0 mm | - | - | - |
| 1788669130 | 13.89° C | 81% | 1024 hPa | 0 mm | - | - | - |
| 1788667329 | 13.89° C | 79% | 1023.9 hPa | 0 mm | - | - | - |
| 1788665529 | 14.44° C | 82% | 1023.8 hPa | 0 mm | - | - | - |
| 1788663729 | 14.44° C | 88% | 1023.7 hPa | 0 mm | - | - | - |
| 1788661929 | 14.44° C | 92% | 1023.8 hPa | 0 mm | - | - | - |
| 1788660130 | 15° C | 92% | 1023.6 hPa | 0 mm | - | - | - |
| 1788658330 | 13.89° C | 93% | 1023.9 hPa | 0 mm | - | - | - |
| 1788656563 | 14.44° C | 93% | 1023.8 hPa | 0 mm | - | - | - |
| 1788654731 | 14.44° C | 93% | 1023.8 hPa | 0 mm | - | - | - |
| 1788652932 | 14.44° C | 92% | 1024 hPa | 0 mm | - | - | - |
| 1788651131 | 15° C | 89% | 1024 hPa | 0 mm | - | - | - |
| 1788649332 | 16.11° C | 88% | 1023.9 hPa | 0 mm | - | - | - |
| 1788647531 | 16.11° C | 89% | 1023.9 hPa | 0 mm | - | - | - |
| 1788645731 | 16.11° C | 89% | 1023.8 hPa | 0 mm | - | - | - |
| 1788643931 | 16.11° C | 90% | 1023.6 hPa | 3.3 mm | - | - | - |
| 1788642131 | 16.11° C | 88% | 1023.6 hPa | 3.3 mm | - | - | - |
| 1788640333 | 16.67° C | 88% | 1023.4 hPa | 3.3 mm | - | - | - |
| 1788638531 | 16.67° C | 89% | 1023.2 hPa | 3.3 mm | - | - | - |
| 1788636732 | 16.67° C | 88% | 1023.1 hPa | 3.3 mm | - | - | - |
| 1788634931 | 16.67° C | 88% | 1022.7 hPa | 3.3 mm | - | - | - |
| 1788633130 | 16.67° C | 88% | 1022.4 hPa | 3.3 mm | - | - | - |
| 1788631331 | 17.22° C | 87% | 1021.9 hPa | 3.3 mm | - | - | - |
* Rain since midnight (hover to see other rain measurements)
** Current wind speed in m/s (hover to see current wind gust speed)